DC1MBB-9 Weather Reports


Display with metric or nautical units.
time (UTC)temp
F
wind
direction
speed
MPH
gust
MPH
rain 1hr
in
rain 24hr
in
rain mn
in
humidity
%
barometer
mb
20260504202815 69 0 0.0 0.0 0.00 0.00 0.00 43 955.0
20260504202214 69 0 0.0 0.0 0.00 0.00 0.00 42 955.0
20260504201613 69 0 0.0 0.0 0.00 0.00 0.00 41 955.0
20260504201013 70 0 0.0 0.0 0.00 0.00 0.00 39 955.0
20260504195811 70 0 0.0 0.0 0.00 0.00 0.00 40 954.0
20260504195210 70 0 0.0 0.0 0.00 0.00 0.00 40 954.0
20260504194009 71 0 0.0 0.0 0.00 0.00 0.00 40 954.0
20260504193408 71 0 0.0 0.0 0.00 0.00 0.00 40 954.0
20260504192807 72 0 0.0 0.0 0.00 0.00 0.00 39 954.0
20260504192206 72 0 0.0 0.0 0.00 0.00 0.00 38 954.0
20260504191605 72 0 0.0 0.0 0.00 0.00 0.00 37 953.0
20260504191005 73 0 0.0 0.0 0.00 0.00 0.00 37 953.0
20260504190404 73 0 0.0 0.0 0.00 0.00 0.00 37 953.0
20260504185803 73 0 0.0 0.0 0.00 0.00 0.00 36 953.0
20260504185202 74 0 0.0 0.0 0.00 0.00 0.00 35 953.0
20260504184602 74 0 0.0 0.0 0.00 0.00 0.00 36 953.0
20260504184001 74 0 0.0 0.0 0.00 0.00 0.00 35 953.0
20260504183400 74 0 0.0 0.0 0.00 0.00 0.00 34 953.0
20260504182759 75 0 0.0 0.0 0.00 0.00 0.00 34 953.0
20260504182158 75 0 0.0 0.0 0.00 0.00 0.00 34 953.0
20260504181558 75 0 0.0 0.0 0.00 0.00 0.00 34 953.0
20260504180957 75 0 0.0 0.0 0.00 0.00 0.00 33 953.0
20260504180356 76 0 0.0 0.0 0.00 0.00 0.00 33 953.0
20260504175755 76 0 0.0 0.0 0.00 0.00 0.00 32 953.0
20260504175155 76 0 0.0 0.0 0.00 0.00 0.00 32 953.0
20260504174554 77 0 0.0 0.0 0.00 0.00 0.00 32 953.0
20260504173953 77 0 0.0 0.0 0.00 0.00 0.00 31 953.0
20260504173352 77 0 0.0 0.0 0.00 0.00 0.00 31 953.0
20260504172751 77 0 0.0 0.0 0.00 0.00 0.00 31 953.0
20260504172151 77 0 0.0 0.0 0.00 0.00 0.00 29 953.0
20260504171550 77 0 0.0 0.0 0.00 0.00 0.00 29 953.0
20260504170949 78 0 0.0 0.0 0.00 0.00 0.00 29 953.0
20260504170348 78 0 0.0 0.0 0.00 0.00 0.00 29 953.0
20260504160340 79 0 0.0 0.0 0.00 0.00 0.00 29 953.0
20260504150933 79 0 0.0 0.0 0.00 0.00 0.00 28 954.0
20260504150332 79 0 0.0 0.0 0.00 0.00 0.00 28 954.0
20260504140925 82 0 0.0 0.0 0.00 0.00 0.00 25 954.0
20260504140324 83 0 0.0 0.0 0.00 0.00 0.00 26 954.0
20260504130316 89 0 0.0 0.0 0.00 0.00 0.00 22 954.0
20260504120308 81 0 0.0 0.0 0.00 0.00 0.00 27 955.0
20260504110300 76 0 0.0 0.0 0.00 0.00 0.00 30 956.0
20260504100253 73 0 0.0 0.0 0.00 0.00 0.00 32 957.0
20260504081439 70 0 0.0 0.0 0.00 0.00 0.00 37 957.0
20260504080838 69 0 0.0 0.0 0.00 0.00 0.00 37 958.0
20260504080237 70 0 0.0 0.0 0.00 0.00 0.00 36 958.0
20260504070229 67 0 0.0 0.0 0.00 0.00 0.00 41 958.0
20260504060221 64 0 0.0 0.0 0.00 0.00 0.00 49 958.0
20260504050214 64 0 0.0 0.0 0.00 0.00 0.00 61 958.0
20260504045613 64 0 0.0 0.0 0.00 0.00 0.00 52 958.0
20260504045012 63 0 0.0 0.0 0.00 0.00 0.00 46 958.0
20260504044411 63 0 0.0 0.0 0.00 0.00 0.00 47 958.0
20260504043811 64 0 0.0 0.0 0.00 0.00 0.00 45 958.0
20260504043210 63 0 0.0 0.0 0.00 0.00 0.00 45 958.0
20260504042609 62 0 0.0 0.0 0.00 0.00 0.00 46 958.0
20260504042008 64 0 0.0 0.0 0.00 0.00 0.00 45 958.0
20260504041407 64 0 0.0 0.0 0.00 0.00 0.00 44 958.0
20260504040807 63 0 0.0 0.0 0.00 0.00 0.00 45 958.0
20260504040206 62 0 0.0 0.0 0.00 0.00 0.00 45 958.0
20260504035605 64 0 0.0 0.0 0.00 0.00 0.00 44 958.0
20260504035004 64 0 0.0 0.0 0.00 0.00 0.00 42 958.0
20260504034404 63 0 0.0 0.0 0.00 0.00 0.00 42 958.0
20260504033803 63 0 0.0 0.0 0.00 0.00 0.00 42 958.0
20260504033202 64 0 0.0 0.0 0.00 0.00 0.00 42 958.0
20260504032601 64 0 0.0 0.0 0.00 0.00 0.00 42 958.0
20260504032000 64 0 0.0 0.0 0.00 0.00 0.00 42 958.0
20260504031400 64 0 0.0 0.0 0.00 0.00 0.00 42 958.0
20260504030759 64 0 0.0 0.0 0.00 0.00 0.00 41 958.0
20260504030158 64 0 0.0 0.0 0.00 0.00 0.00 41 958.0
20260504025557 64 0 0.0 0.0 0.00 0.00 0.00 41 958.0
20260504024957 65 0 0.0 0.0 0.00 0.00 0.00 40 958.0
20260504024356 65 0 0.0 0.0 0.00 0.00 0.00 41 958.0
20260504023755 64 0 0.0 0.0 0.00 0.00 0.00 41 958.0
20260504023154 65 0 0.0 0.0 0.00 0.00 0.00 41 958.0
20260504022553 64 0 0.0 0.0 0.00 0.00 0.00 41 958.0
20260504021953 65 0 0.0 0.0 0.00 0.00 0.00 40 958.0
20260504021352 65 0 0.0 0.0 0.00 0.00 0.00 40 958.0
20260504020751 64 0 0.0 0.0 0.00 0.00 0.00 40 958.0
20260504020150 65 0 0.0 0.0 0.00 0.00 0.00 39 958.0
20260504014949 65 0 0.0 0.0 0.00 0.00 0.00 39 958.0
20260504014348 66 0 0.0 0.0 0.00 0.00 0.00 38 958.0
20260504013747 65 0 0.0 0.0 0.00 0.00 0.00 38 958.0
20260504013208 66 0 0.0 0.0 0.00 0.00 0.00 38 958.0
20260504013146 66 0 0.0 0.0 0.00 0.00 0.00 38 958.0
20260504012546 66 0 0.0 0.0 0.00 0.00 0.00 38 958.0
20260504011945 65 0 0.0 0.0 0.00 0.00 0.00 38 958.0
20260504011344 66 0 0.0 0.0 0.00 0.00 0.00 38 958.0
20260504010743 66 0 0.0 0.0 0.00 0.00 0.00 37 958.0
20260504010143 66 0 0.0 0.0 0.00 0.00 0.00 36 958.0
20260504005542 66 0 0.0 0.0 0.00 0.00 0.00 36 958.0
20260504004941 66 0 0.0 0.0 0.00 0.00 0.00 36 958.0
20260504004340 67 0 0.0 0.0 0.00 0.00 0.00 37 958.0
20260504003739 66 0 0.0 0.0 0.00 0.00 0.00 37 958.0
20260504003139 67 0 0.0 0.0 0.00 0.00 0.00 36 958.0
20260504002538 67 0 0.0 0.0 0.00 0.00 0.00 36 958.0
20260504001937 67 0 0.0 0.0 0.00 0.00 0.00 37 958.0
20260504001336 67 0 0.0 0.0 0.00 0.00 0.00 37 958.0
20260504000736 67 0 0.0 0.0 0.00 0.00 0.00 38 958.0
20260504000135 67 0 0.0 0.0 0.00 0.00 0.00 39 957.0
20260503235534 68 0 0.0 0.0 0.00 0.00 0.00 40 957.0
20260503234933 68 0 0.0 0.0 0.00 0.00 0.00 40 957.0
20260503234333 68 0 0.0 0.0 0.00 0.00 0.00 41 957.0
20260503233732 68 0 0.0 0.0 0.00 0.00 0.00 41 957.0
20260503233131 68 0 0.0 0.0 0.00 0.00 0.00 41 957.0
20260503232530 68 0 0.0 0.0 0.00 0.00 0.00 41 957.0
20260503231929 68 0 0.0 0.0 0.00 0.00 0.00 41 957.0
20260503231329 68 0 0.0 0.0 0.00 0.00 0.00 41 957.0
20260503230728 68 0 0.0 0.0 0.00 0.00 0.00 41 957.0
20260503230127 68 0 0.0 0.0 0.00 0.00 0.00 41 957.0
20260503225526 68 0 0.0 0.0 0.00 0.00 0.00 40 956.0
20260503224925 68 0 0.0 0.0 0.00 0.00 0.00 41 956.0
20260503224325 68 0 0.0 0.0 0.00 0.00 0.00 41 956.0
20260503223724 69 0 0.0 0.0 0.00 0.00 0.00 41 956.0
20260503223123 69 0 0.0 0.0 0.00 0.00 0.00 41 956.0
20260503222522 69 0 0.0 0.0 0.00 0.00 0.00 41 956.0
20260503221922 69 0 0.0 0.0 0.00 0.00 0.00 40 956.0
20260503221321 69 0 0.0 0.0 0.00 0.00 0.00 39 956.0
20260503220720 69 0 0.0 0.0 0.00 0.00 0.00 39 956.0
20260503220119 70 0 0.0 0.0 0.00 0.00 0.00 39 956.0
20260503215518 70 0 0.0 0.0 0.00 0.00 0.00 39 956.0
20260503214918 70 0 0.0 0.0 0.00 0.00 0.00 38 956.0
20260503214317 70 0 0.0 0.0 0.00 0.00 0.00 36 956.0
20260503213716 70 0 0.0 0.0 0.00 0.00 0.00 36 956.0
20260503213115 70 0 0.0 0.0 0.00 0.00 0.00 36 956.0
20260503212515 70 0 0.0 0.0 0.00 0.00 0.00 36 956.0
20260503211914 70 0 0.0 0.0 0.00 0.00 0.00 35 956.0
20260503211313 70 0 0.0 0.0 0.00 0.00 0.00 37 956.0
20260503210712 70 0 0.0 0.0 0.00 0.00 0.00 37 956.0
20260503210111 70 0 0.0 0.0 0.00 0.00 0.00 38 956.0
20260503205511 70 0 0.0 0.0 0.00 0.00 0.00 39 956.0
20260503204910 70 0 0.0 0.0 0.00 0.00 0.00 39 956.0
20260503204309 70 0 0.0 0.0 0.00 0.00 0.00 40 956.0